View from above orbital plane
|
View from above satellite
|
Ground track
|
The orbit data is extracted from the following two-line orbital elements,
1 25732U 99025C 21059.47000375 -.00000027 00000-0 87162-5 0 9996
2 25732 98.9174 95.6058 0037069 199.2193 294.2370 14.17688662128097
Epoch (UTC): | 28 February 2021 11:16:48 |
Eccentricity: | 0.0037069 |
inclination: | 98.9174° |
perigee height: | 806 km |
apogee height: | 860 km |
right ascension of ascending node: | 95.6058° |
argument of perigee: | 199.2193° |
revolutions per day: | 14.17688662 |
mean anomaly at epoch: | 294.2370° |
orbit number at epoch: | 12809 |
The dashed part of the orbit path shows where the satellite is in the earth's shadow,
|
|